Retour au catalogue

LEMUR 2 STAR-FOX

ActifScienceSSO
NORAD 62696·PAYLOAD·🇺🇸 United States

Lancé Jan 14, 2025 depuis Vandenberg Space Force Base

Loading…

Prochains Passages (prochaines 24 heures)

TLE

FraisSource: Space-Track

Époque: Sep 14, 2026, 04:02 UTC

1 62696U 25009CR  26257.16813155  .00003711  00000-0  27645-3 0  9996
2 62696  97.6896 338.1581 0002833 141.2245 218.9185 15.03528940 90921

Suivez LEMUR 2 STAR-FOX en temps réel avec AllMySat

Download on the App Store